Wind_Speed
44 44 42 40 38 38 38 41 42 41 40 38 35 32 28 25 23 23 24 26 28 30 33 36 39 41 43 44 46 48 50 51 53 54 56 57 58 59 59 60 59 59
40 43 43 39 36 35 35 35 36 35 33 31 27 23 21 22 24 26 28 30 32 34 36 39 41 43 45 47 48 50 51 53 55 56 57 57 58 58 58 57 56 56
33 34 35 34 32 30 28 26 25 24 23 22 22 22 23 26 29 30 32 34 35 37 39 41 43 45 47 48 50 52 53 55 55 56 56 56 56 55 54 54 54 55
25 25 24 23 22 20 19 19 19 19 21 22 24 26 28 29 31 33 35 36 38 40 42 44 46 47 49 50 52 53 54 54 54 55 54 53 52 52 52 53 55 56
16 17 17 17 17 17 18 19 21 22 24 26 28 29 31 32 34 35 37 38 40 42 44 46 48 49 50 52 52 53 53 53 53 52 51 50 51 52 53 54 55 56
16 17 18 19 20 22 23 23 25 26 27 29 30 32 34 35 36 38 39 41 43 45 46 48 49 50 51 52 52 52 51 50 49 48 49 50 51 52 53 54 55 56
22 24 24 25 25 26 26 26 27 28 29 31 32 34 35 37 38 40 41 43 45 46 48 49 50 51 52 51 50 49 47 47 47 48 49 51 51 52 53 54 56 58
29 29 29 29 28 28 27 28 29 30 31 33 34 36 37 39 40 42 43 45 46 48 49 50 51 51 49 48 46 45 46 47 48 49 50 50 51 53 54 56 59 61
31 30 30 30 30 29 29 30 31 32 33 35 36 38 39 40 42 43 44 46 47 48 49 49 48 46 45 44 44 46 47 47 48 49 50 51 53 55 57 59 61 64
30 30 30 30 30 30 31 32 33 34 35 37 38 39 40 41 42 44 45 46 47 47 46 45 43 43 44 45 46 47 47 47 48 50 51 53 56 58 60 62 64 66
31 31 31 31 32 32 33 33 34 36 37 39 40 41 41 42 43 44 45 45 44 43 42 42 43 44 46 46 46 47 47 48 50 52 54 56 59 61 62 65 67 69
33 33 34 34 34 35 35 35 36 37 39 40 41 42 42 43 43 43 43 41 40 40 41 43 45 46 46 46 47 47 49 50 52 55 57 59 61 63 65 67 69 72
35 36 38 38 38 38 38 38 39 40 41 42 43 43 43 42 42 40 39 39 40 42 44 45 46 46 46 47 48 49 51 53 55 58 59 61 63 65 67 70 72 74
36 37 39 40 40 40 40 40 41 42 43 43 43 43 42 40 39 39 40 42 43 44 45 45 46 46 47 48 50 52 54 56 58 60 61 63 65 67 70 72 74 76
38 39 40 40 40 40 41 41 42 42 43 43 43 41 39 38 38 41 43 44 44 44 45 45 46 47 49 51 53 55 57 58 60 62 64 66 68 70 72 74 75 76
39 40 40 39 39 40 40 41 41 42 42 42 40 38 38 39 42 43 44 44 44 44 45 46 47 49 51 53 56 57 59 61 62 64 66 68 70 71 73 74 75 75
39 39 39 39 39 40 41 41 40 40 40 39 38 39 41 42 44 44 44 44 44 45 46 48 49 52 54 56 58 60 61 63 64 66 68 69 71 72 73 74 74 75
38 38 39 40 40 40 40 39 38 38 39 39 40 41 43 43 44 44 44 45 45 47 48 50 52 55 57 58 60 62 63 65 67 68 69 71 72 72 73 73 74 76
38 39 40 40 40 39 38 37 37 38 39 40 41 42 43 44 45 45 45 46 48 49 51 53 56 57 59 60 62 64 66 67 68 70 71 72 72 72 73 74 75 76
39 40 39 39 38 37 36 37 38 40 41 41 42 42 44 45 46 47 48 49 51 53 55 57 58 60 61 63 65 66 67 69 70 71 72 72 72 73 73 74 75 76
39 38 38 37 36 37 38 39 40 40 41 41 42 44 45 46 48 49 51 52 54 56 58 59 61 62 64 65 67 68 69 71 72 72 72 71 72 73 74 75 76 76
37 37 37 37 38 38 39 40 40 40 41 42 44 46 47 49 51 53 54 55 57 59 60 62 63 65 66 67 68 70 71 72 72 71 71 72 72 73 74 75 75 75
37 38 39 39 39 39 40 40 40 41 42 44 46 48 50 52 54 55 57 58 60 61 63 64 66 66 68 69 70 71 72 72 71 71 71 72 73 73 74 75 74 74
39 40 40 40 40 40 40 40 41 42 44 46 49 51 53 54 56 58 59 61 62 64 65 66 67 68 69 70 71 71 71 70 70 71 71 72 73 74 74 73 73 73
40 41 41 41 40 41 42 43 44 45 47 49 52 54 55 57 59 60 62 63 65 66 67 68 68 70 70 71 71 70 69 69 70 70 71 71 72 73 73 72 72 72
41 42 42 42 42 44 45 46 47 48 50 53 55 57 58 59 61 63 64 65 66 67 68 69 70 70 71 70 69 68 68 69 70 70 70 71 72 72 71 71 71 71
Wind_Direction
247 246 252 260 260 256 254 252 253 254 253 252 252 253 257 262 269 273 276 278 279 281 283 285 287 287 288 289 289 289 289 289 289 289 290 291 292 293 294 295 296 297
248 247 250 254 253 249 248 247 247 248 249 252 256 263 270 276 281 283 284 285 285 286 286 286 286 286 287 287 287 287 287 287 288 289 290 292 293 294 295 296 297 299
251 248 247 247 248 247 247 246 246 249 254 261 270 277 281 283 285 286 286 287 286 286 285 285 285 285 285 285 285 286 286 287 289 291 292 293 294 295 296 298 299 300
252 251 248 247 248 248 250 253 258 266 273 279 284 286 286 285 285 286 286 286 285 284 284 284 283 283 284 284 285 286 288 290 291 293 293 294 295 296 298 299 299 299
249 251 253 255 258 261 265 270 275 281 284 285 286 285 285 284 284 285 284 284 284 283 283 282 283 283 284 285 287 289 290 291 292 293 294 295 296 297 297 298 298 299
255 264 268 272 275 277 280 282 284 285 284 284 284 284 284 284 284 284 283 282 281 281 281 282 283 284 285 287 289 290 291 291 292 293 294 295 295 296 297 298 299 301
265 272 276 280 282 284 285 286 285 283 282 282 283 283 284 283 282 281 280 280 279 280 281 282 284 286 287 288 289 290 290 291 292 293 293 294 295 296 298 299 300 301
274 277 280 284 286 286 285 283 282 280 279 280 280 280 280 279 278 277 277 278 279 280 282 283 285 286 287 288 288 289 290 291 292 292 293 295 296 297 299 300 301 301
279 281 282 283 283 282 281 278 276 276 275 275 275 275 275 274 275 275 277 278 279 281 283 284 285 285 286 287 287 288 289 291 292 293 294 296 297 298 299 301 302 302
279 280 279 278 278 277 276 274 273 273 273 273 273 273 273 274 275 276 278 279 281 282 283 283 284 284 285 286 287 288 290 292 293 294 296 297 298 300 301 302 303 304
276 277 277 277 276 276 274 273 272 272 273 273 274 274 275 275 276 278 279 280 281 281 282 282 283 284 285 286 288 290 292 293 295 297 298 299 300 301 302 303 304 304
276 277 277 277 276 276 274 273 272 273 274 275 276 276 276 276 277 278 279 279 279 279 280 281 282 283 285 287 289 292 294 296 298 299 300 300 302 303 303 304 304 304
273 275 277 277 276 275 274 273 272 273 274 275 276 276 276 275 276 276 276 276 276 278 279 281 283 285 288 290 292 294 296 298 299 300 301 302 303 303 303 304 304 304
267 267 268 269 269 269 270 270 271 271 272 274 274 274 273 273 273 273 274 275 277 280 282 284 286 288 291 293 295 297 298 299 300 301 302 303 303 303 304 304 304 304
263 262 261 261 262 264 265 266 267 268 270 270 271 271 271 272 273 273 275 278 280 283 285 287 289 291 293 296 297 298 299 300 301 302 302 303 303 304 304 303 303 304
261 261 261 262 262 263 263 264 265 266 266 267 268 269 270 272 273 275 278 280 283 285 287 289 291 294 296 298 299 300 301 301 302 302 303 303 303 303 303 303 303 304
262 262 263 263 264 264 265 265 265 265 265 266 268 270 272 274 276 278 280 282 285 287 290 292 294 296 298 299 300 300 301 301 302 302 303 303 303 303 303 303 304 304
262 262 262 263 264 265 265 265 265 265 266 270 272 274 276 278 279 281 283 286 288 291 293 295 297 298 299 299 300 300 301 301 302 302 302 302 302 303 303 303 304 304
262 263 264 265 265 265 265 265 266 268 271 275 277 278 280 281 282 285 287 289 292 294 295 296 297 298 299 299 300 300 301 301 301 302 302 302 302 303 303 303 304 304
265 267 267 267 266 267 268 270 272 275 278 279 280 281 282 284 286 288 290 292 294 295 296 297 298 298 299 299 300 300 301 301 301 301 302 302 303 303 303 304 304 305
266 267 266 267 268 270 273 275 277 279 280 281 281 282 284 286 288 290 292 293 294 295 296 297 298 299 299 300 300 300 300 300 300 301 302 303 303 303 304 304 305 307
266 266 267 269 271 273 276 277 278 279 280 280 282 283 286 288 289 291 293 294 295 296 297 298 298 299 299 300 300 299 299 300 301 302 303 303 303 304 304 305 306 307
266 268 270 272 273 275 277 277 278 279 280 281 283 285 287 289 291 292 293 294 296 297 297 298 298 299 299 299 299 299 299 300 301 302 303 303 304 304 304 305 306 307
268 269 271 273 275 276 278 279 280 281 282 284 286 287 289 290 292 293 294 295 296 297 297 298 298 298 298 298 299 299 300 301 301 302 303 303 304 304 305 306 306 306
268 270 272 275 277 279 280 282 284 285 285 286 287 289 290 291 292 293 294 295 296 296 296 296 297 298 298 298 299 299 300 301 301 302 303 303 303 304 305 305 305 306
269 272 275 278 280 282 284 286 286 286 287 287 288 290 291 292 292 293 294 295 295 295 295 296 297 298 298 298 299 300 300 301 301 302 302 302 303 303 304 304 305 307
Height
5752 5753 5753 5754 5755 5755 5756 5756 5757 5757 5757 5757 5757 5757 5757 5758 5759 5759 5759 5759 5759 5759 5759 5758 5757 5756 5755 5754 5753 5751 5750 5748 5746 5744 5742 5740 5738 5736 5734 5732 5730 5727
5748 5748 5749 5750 5750 5751 5751 5752 5752 5753 5753 5753 5753 5753 5754 5755 5756 5756 5756 5755 5754 5754 5753 5752 5752 5750 5749 5748 5746 5745 5743 5741 5740 5738 5736 5734 5732 5730 5728 5725 5723 5721
5744 5745 5745 5746 5746 5747 5747 5748 5748 5749 5749 5750 5750 5750 5751 5751 5752 5752 5751 5750 5749 5748 5747 5746 5745 5744 5743 5742 5740 5739 5737 5735 5733 5731 5729 5727 5725 5724 5721 5719 5717 5714
5740 5741 5742 5742 5743 5743 5744 5745 5745 5746 5746 5746 5746 5747 5747 5747 5747 5747 5746 5744 5743 5742 5741 5740 5739 5738 5737 5736 5734 5732 5730 5729 5727 5725 5723 5721 5719 5717 5715 5713 5710 5707
5738 5738 5739 5740 5740 5741 5742 5742 5742 5742 5743 5743 5743 5743 5743 5742 5742 5741 5740 5739 5738 5737 5736 5735 5734 5732 5731 5729 5728 5726 5724 5723 5721 5719 5717 5715 5713 5711 5708 5706 5704 5701
5735 5736 5737 5738 5739 5739 5739 5739 5739 5739 5739 5738 5739 5738 5738 5737 5736 5735 5734 5733 5732 5731 5730 5729 5728 5727 5725 5723 5722 5720 5719 5717 5715 5713 5711 5709 5706 5704 5702 5699 5696 5693
5734 5735 5735 5735 5735 5735 5735 5735 5735 5735 5734 5734 5734 5733 5733 5732 5731 5730 5729 5728 5727 5726 5725 5724 5722 5721 5719 5717 5716 5714 5713 5711 5709 5707 5705 5702 5700 5697 5695 5692 5688 5685
5731 5731 5731 5731 5731 5731 5731 5730 5730 5730 5729 5729 5729 5728 5727 5727 5726 5725 5724 5723 5722 5720 5719 5717 5716 5714 5713 5712 5710 5708 5707 5704 5702 5700 5698 5696 5693 5690 5687 5683 5680 5677
5726 5726 5726 5726 5726 5726 5725 5725 5725 5725 5724 5724 5723 5723 5722 5722 5721 5720 5719 5718 5716 5715 5713 5711 5710 5709 5707 5706 5704 5702 5700 5698 5696 5693 5691 5688 5685 5681 5678 5675 5671 5668
5721 5721 5721 5720 5720 5720 5720 5720 5719 5719 5719 5719 5718 5718 5717 5716 5715 5714 5713 5712 5710 5709 5707 5705 5704 5703 5701 5700 5698 5696 5694 5691 5689 5686 5683 5680 5677 5673 5670 5666 5662 5659
5715 5715 5715 5715 5715 5715 5715 5715 5714 5714 5714 5713 5713 5712 5711 5710 5709 5708 5707 5706 5704 5703 5701 5700 5698 5697 5695 5693 5691 5689 5686 5684 5681 5678 5675 5672 5668 5665 5661 5657 5653 5650
5710 5710 5710 5710 5710 5710 5710 5710 5709 5709 5709 5708 5707 5707 5706 5705 5704 5703 5701 5700 5699 5697 5696 5694 5692 5690 5689 5686 5684 5681 5679 5676 5673 5670 5667 5664 5660 5656 5652 5648 5645 5641
5706 5706 5706 5706 5705 5705 5705 5705 5704 5704 5703 5703 5702 5701 5700 5699 5698 5697 5696 5695 5693 5692 5690 5688 5686 5684 5682 5679 5677 5674 5672 5669 5666 5663 5659 5655 5652 5648 5644 5640 5636 5631
5702 5702 5702 5701 5701 5701 5700 5699 5699 5698 5698 5697 5696 5695 5694 5693 5692 5691 5690 5689 5687 5685 5683 5681 5679 5677 5675 5672 5670 5667 5664 5661 5658 5654 5651 5647 5643 5639 5635 5631 5627 5622
5697 5697 5696 5696 5696 5695 5695 5694 5694 5693 5692 5691 5690 5690 5689 5688 5687 5685 5684 5682 5680 5678 5676 5675 5673 5670 5668 5665 5662 5660 5657 5653 5650 5646 5642 5638 5634 5630 5627 5622 5618 5614
5691 5691 5691 5690 5690 5689 5689 5688 5688 5687 5686 5685 5685 5684 5683 5682 5680 5678 5677 5675 5673 5672 5670 5668 5666 5664 5661 5658 5655 5652 5649 5645 5641 5638 5634 5630 5626 5621 5617 5613 5609 5605
5686 5686 5685 5685 5684 5683 5683 5682 5682 5681 5680 5679 5679 5678 5677 5675 5673 5671 5670 5668 5667 5665 5663 5661 5659 5656 5654 5651 5647 5644 5641 5637 5633 5630 5626 5622 5617 5613 5609 5605 5600 5596
5681 5680 5680 5679 5678 5677 5677 5676 5676 5675 5674 5674 5673 5672 5670 5668 5666 5665 5663 5661 5660 5658 5656 5653 5651 5649 5647 5644 5640 5636 5633 5629 5625 5621 5618 5613 5609 5605 5601 5596 5592 5587
5675 5674 5674 5673 5672 5671 5671 5671 5670 5670 5669 5668 5667 5665 5663 5661 5659 5658 5656 5654 5652 5650 5649 5646 5644 5642 5639 5636 5633 5629 5625 5621 5617 5613 5609 5605 5601 5597 5592 5588 5584 5579
5669 5668 5667 5667 5666 5666 5666 5665 5665 5664 5663 5662 5660 5658 5656 5654 5652 5651 5649 5647 5646 5644 5642 5640 5637 5635 5632 5628 5625 5621 5617 5613 5609 5605 5601 5598 5593 5589 5584 5580 5575 5571
5663 5662 5662 5661 5661 5661 5661 5660 5659 5658 5656 5655 5653 5651 5650 5648 5646 5644 5642 5641 5639 5637 5635 5632 5630 5627 5623 5620 5616 5612 5609 5605 5601 5597 5594 5589 5585 5580 5575 5571 5567 5563
5657 5657 5656 5656 5656 5656 5655 5654 5653 5652 5650 5649 5647 5645 5643 5641 5639 5637 5636 5634 5632 5630 5627 5624 5622 5619 5615 5611 5608 5604 5600 5597 5593 5590 5586 5581 5576 5571 5567 5563 5559 5555
5652 5652 5652 5651 5651 5650 5650 5649 5647 5646 5644 5642 5640 5638 5636 5634 5633 5631 5629 5627 5625 5622 5620 5616 5613 5611 5607 5603 5600 5596 5592 5589 5585 5582 5577 5573 5568 5563 5559 5555 5550 5546
5647 5647 5646 5646 5646 5645 5644 5642 5641 5640 5638 5636 5634 5632 5630 5628 5626 5624 5621 5619 5617 5614 5611 5608 5605 5602 5599 5596 5592 5588 5585 5581 5578 5574 5569 5565 5559 5555 5551 5547 5542 5537
5642 5641 5641 5640 5640 5639 5637 5636 5635 5634 5632 5630 5627 5625 5623 5621 5619 5616 5614 5611 5609 5606 5603 5600 5597 5594 5591 5588 5584 5581 5577 5574 5570 5566 5562 5557 5552 5547 5543 5539 5534 5529
5637 5636 5635 5635 5634 5632 5631 5629 5628 5627 5625 5623 5620 5618 5616 5614 5611 5608 5606 5603 5600 5598 5595 5592 5589 5586 5583 5580 5577 5573 5570 5566 5562 5559 5554 5549 5544 5540 5535 5531 5526 5521